[[{"header":{"parameterUnit":"m.s-1","parameterCategory":1,"la1":30.2991,"la2":30.254,"lo1":-89.0895,"lo2":-89.0444,"dy":0.0017,"dx":0.0017,"nx":28,"ny":28,"refTime":"2024-03-30T21:00:00:Z","depth":0,"parameterNumber":2,"parameterNumberName":"U-component_of_WINDS"},"data":[0,0,0,0,0,0,0,0,0,0,0,0,0,0,0,0,0,0,0,0,0,0,0,0,0,0,0,0,0,0,0,0,0,0,0,0,0,0,0,0,0,0,0,0,0,0,0,0,0,0,0,0,0,0,0,0,0,0,-1.4683,-1.4683,0,-1.4717,-1.4717,-1.4717,-1.471,-1.4709,-1.4708,-1.4708,-1.4745,-1.4746,-1.4748,0,0,0,0,0,0,0,0,0,0,0,0,0,-1.4615,-1.4616,-1.4683,-1.4683,-1.4684,-1.4717,-1.4717,-1.4717,-1.471,-1.4709,-1.4708,-1.4707,-1.4744,-1.4746,-1.4748,0,0,0,0,0,0,0,0,0,0,0,0,0,-1.4646,-1.4617,-1.4683,-1.4684,-1.4684,-1.4716,-1.4717,-1.4718,-1.471,-1.4709,-1.4708,-1.4707,-1.4744,-1.4746,-1.4748,-1.4783,0,0,-1.4756,-1.4757,0,0,0,0,0,0,0,0,-1.4644,-1.4649,-1.4683,-1.4684,-1.4684,-1.4708,-1.4707,-1.4739,-1.471,-1.47,-1.4708,-1.4707,-1.4734,-1.4737,-1.4745,-1.4784,-1.4786,-1.4756,-1.4757,-1.4758,-1.4759,0,0,0,0,0,0,0,-1.4642,-1.4647,-1.4696,-1.4684,-1.4684,-1.4684,-1.4687,-1.4713,-1.4722,-1.4701,-1.4701,-1.4705,-1.4734,-1.4743,-1.4746,-1.4786,-1.4756,-1.4758,-1.4759,-1.476,-1.4857,-1.4858,0,0,0,0,0,0,-1.4639,-1.4645,-1.4695,-1.4697,-1.4661,-1.4686,-1.4689,-1.4701,-1.4722,-1.4724,-1.4705,-1.4704,-1.4739,-1.4743,-1.4747,-1.4789,-1.4758,-1.4761,-1.4762,-1.4856,-1.4857,-1.4858,0,0,0,0,0,0,-1.4638,-1.4644,-1.4694,-1.4671,-1.4677,-1.4688,-1.4701,-1.4702,-1.4712,-1.4725,-1.4727,-1.4713,-1.4739,-1.4744,-1.4774,-1.4791,-1.4762,-1.4764,-1.4855,-1.4856,-1.4858,-1.4873,0,0,0,0,0,0,-1.4636,-1.4643,-1.4655,-1.4671,-1.4679,-1.4719,-1.4702,-1.4704,-1.4716,-1.4714,-1.4732,-1.4735,-1.4738,-1.4771,-1.4776,-1.4793,-1.4766,-1.4853,-1.4855,-1.4857,-1.4871,-1.4875,-1.4879,0,0,0,0,0,-1.4633,-1.4659,-1.4656,-1.4662,-1.4694,-1.472,-1.4724,-1.4727,-1.4717,-1.473,-1.4739,-1.4734,-1.4788,-1.4774,-1.478,-1.4798,-1.4852,-1.4855,-1.4857,-1.487,-1.4875,-1.4879,0,0,0,0,0,0,-1.4645,-1.4661,-1.4658,-1.4689,-1.4703,-1.4718,-1.4735,-1.4732,-1.475,-1.4748,-1.4752,-1.4756,-1.4787,-1.4796,-1.4779,-1.4833,-1.4819,-1.4823,-1.4826,-1.4831,-1.4834,-1.4832,-1.4768,0,0,0,0,0,-1.4651,-1.4669,-1.4683,-1.4709,-1.4716,-1.4724,-1.4736,-1.4737,-1.4752,-1.4758,-1.4769,-1.4784,-1.4805,-1.4818,-1.4838,-1.4873,-1.4877,-1.4889,-1.4892,-1.4895,-1.4899,-1.4919,-1.4924,-1.4867,-1.4867,-1.4867,0,0,-1.4664,-1.4675,-1.4686,-1.4712,-1.4723,-1.4743,-1.4729,-1.4751,-1.4767,-1.4762,-1.479,-1.4799,-1.4817,-1.485,-1.4865,-1.4858,-1.4916,-1.4899,-1.4901,-1.4903,-1.4922,-1.4928,-1.4932,-1.4869,-1.4868,-1.4868,0,0,-1.4697,-1.4707,-1.473,-1.4742,-1.4758,-1.4764,-1.477,-1.4786,-1.4791,-1.482,-1.4817,-1.4836,-1.4871,-1.4884,-1.4896,-1.4936,-1.4933,-1.4942,-1.4961,-1.4981,-1.4986,-1.499,-1.5005,-1.501,-1.4946,-1.4946,-1.4946,0,-1.4711,-1.4741,-1.4743,-1.4765,-1.4777,-1.4773,-1.4797,-1.4809,-1.4831,-1.484,-1.4832,-1.4877,-1.4888,-1.4925,-1.4935,-1.4944,-1.4951,-1.494,-1.4985,-1.4989,-1.4993,-1.5007,-1.5013,-1.4947,-1.4947,-1.4947,-1.4947,0,-1.4757,-1.4778,-1.4795,-1.4816,-1.483,-1.4853,-1.486,-1.4874,-1.4875,-1.4882,-1.4912,-1.4926,-1.4949,-1.4958,-1.4959,-1.4995,-1.499,-1.4984,-1.4969,-1.4999,-1.5013,-1.5018,-1.4948,-1.4948,-1.4948,-1.4947,0,0,-1.4798,-1.4821,-1.4827,-1.4837,-1.4856,-1.4873,-1.4897,-1.4918,-1.4931,-1.4947,-1.4968,-1.4998,-1.4992,-1.5005,-1.5008,-1.5025,-1.5057,-1.5016,-1.5017,-1.5024,-1.5099,-1.5104,-1.511,-1.5055,-1.5056,-1.5057,-1.5098,0,-1.4834,-1.4874,-1.4878,-1.4915,-1.4935,-1.4932,-1.4953,-1.4968,-1.4975,-1.4994,-1.5003,-1.5024,-1.5014,-1.5022,-1.5039,-1.5049,-1.5072,-1.5047,-1.5076,-1.5077,-1.5071,-1.5117,-1.5122,-1.5159,-1.5103,-1.5104,-1.5104,0,-1.488,-1.4897,-1.4936,-1.4953,-1.4962,-1.498,-1.5001,-1.5019,-1.5036,-1.504,-1.5055,-1.5056,-1.5082,-1.5067,-1.5103,-1.5086,-1.5098,-1.5105,-1.5107,-1.5109,-1.5092,-1.5121,-1.5171,-1.5177,-1.5113,-1.5112,-1.5111,0,-1.4907,-1.494,-1.4967,-1.4976,-1.4996,-1.501,-1.5019,-1.5035,-1.5048,-1.5067,-1.5076,-1.5098,-1.511,-1.5127,-1.5134,-1.5123,-1.5171,-1.5156,-1.5176,-1.5176,-1.5186,-1.5186,-1.5239,-1.5194,-1.5194,-1.5194,-1.5194,0,-1.4946,-1.497,-1.498,-1.4997,-1.5024,-1.5029,-1.5056,-1.5065,-1.508,-1.5099,-1.5099,-1.5118,-1.5126,-1.5146,-1.5152,-1.5182,-1.5188,-1.5193,-1.5194,-1.5193,-1.5192,-1.5201,-1.5198,-1.5195,-1.5195,-1.5195,-1.5195,0,-1.498,-1.4987,-1.5018,-1.5034,-1.5039,-1.5059,-1.5074,-1.5091,-1.5099,-1.5124,-1.513,-1.5142,-1.5167,-1.5175,-1.5205,-1.5209,-1.5244,-1.5243,-1.5238,-1.5238,-1.5258,-1.5256,-1.5319,-1.5328,-1.5277,-1.5277,-1.5278,0,-1.5005,-1.5023,-1.5042,-1.5055,-1.5065,-1.5085,-1.5099,-1.5104,-1.5119,-1.514,-1.5155,-1.5179,-1.5199,-1.5238,-1.525,-1.5273,-1.5273,-1.5294,-1.5277,-1.5275,-1.5274,-1.5273,-1.5275,-1.5297,-1.5297,-1.5298,-1.5298,0,-1.5048,-1.5051,-1.507,-1.509,-1.5106,-1.5123,-1.5139,-1.515,-1.5158,-1.5175,-1.5199,-1.5214,-1.5245,-1.5269,-1.5293,-1.5304,-1.5303,-1.5304,-1.5309,-1.5308,-1.5305,-1.5308,-1.5247,-1.5302,-1.5302,-1.5301,-1.5301,-1.5301,-1.5079,-1.5095,-1.5111,-1.5133,-1.5145,-1.5161,-1.5178,-1.5187,-1.5208,-1.5232,-1.5235,-1.5261,-1.528,-1.5311,-1.5324,-1.5346,-1.534,-1.5349,-1.5351,-1.5353,-1.5355,-1.5301,-1.535,-1.535,-1.535,-1.535,-1.535,0,-1.5122,-1.5133,-1.5152,-1.5175,-1.5192,-1.5189,-1.5207,-1.5222,-1.5245,-1.5261,-1.528,-1.5309,-1.5333,-1.5348,-1.5372,-1.5387,-1.5387,-1.5393,-1.5392,-1.5395,-1.5358,-1.535,-1.5393,-1.5392,-1.5392,-1.5392,-1.5392,-1.5392,-1.5147,-1.5175,-1.518,-1.5215,-1.5225,-1.5251,-1.5261,-1.5276,-1.5289,-1.5321,-1.5341,-1.535,-1.5366,-1.5392,-1.5414,-1.5418,-1.5427,-1.5434,-1.5437,-1.5402,-1.5397,-1.5393,-1.5386,-1.5435,-1.5436,-1.5473,-1.5473,-1.5473]},{"header":{"parameterUnit":"m.s-1","parameterCategory":1,"la1":30.2991,"la2":30.254,"lo1":-89.0895,"lo2":-89.0444,"dy":0.0017,"dx":0.0017,"nx":28,"ny":28,"refTime":"2024-03-30T21:00:00:Z","depth":0,"parameterNumber":3,"parameterNumberName":"V-component_of_WINDS"},"data":[0,0,0,0,0,0,0,0,0,0,0,0,0,0,0,0,0,0,0,0,0,0,0,0,0,0,0,0,0,0,0,0,0,0,0,0,0,0,0,0,0,0,0,0,0,0,0,0,0,0,0,0,0,0,0,0,0,0,4.0985,4.0985,0,4.1007,4.1007,4.1007,4.0991,4.099,4.099,4.0989,4.1008,4.101,4.1011,0,0,0,0,0,0,0,0,0,0,0,0,0,4.0928,4.0929,4.0985,4.0985,4.0986,4.1007,4.1007,4.1007,4.0991,4.099,4.099,4.0989,4.1008,4.1009,4.1011,0,0,0,0,0,0,0,0,0,0,0,0,0,4.0951,4.0929,4.0985,4.098,4.098,4.1007,4.1007,4.1007,4.0991,4.099,4.0989,4.0988,4.1008,4.1009,4.1011,4.1043,0,0,4.1016,4.1017,0,0,0,0,0,0,0,0,4.095,4.0954,4.0981,4.0981,4.098,4.0995,4.0994,4.1019,4.0992,4.0987,4.0989,4.0988,4.1005,4.1007,4.1013,4.1044,4.1044,4.1017,4.1018,4.1018,4.1019,0,0,0,0,0,0,0,4.0949,4.0952,4.0994,4.0981,4.0981,4.0976,4.0979,4.0999,4.1001,4.0987,4.0986,4.0989,4.1004,4.1011,4.1013,4.1045,4.1016,4.1018,4.1019,4.102,4.1104,4.1105,0,0,0,0,0,0,4.0948,4.0951,4.0993,4.0994,4.0963,4.0978,4.0981,4.0992,4.1001,4.1002,4.099,4.0988,4.1009,4.1011,4.1014,4.1053,4.1018,4.102,4.1021,4.1103,4.1105,4.1106,0,0,0,0,0,0,4.0946,4.0952,4.0992,4.0973,4.0977,4.098,4.0993,4.0992,4.0999,4.1003,4.1003,4.0997,4.1008,4.1011,4.1036,4.1053,4.1021,4.1022,4.1102,4.1103,4.1105,4.1131,0,0,0,0,0,0,4.0945,4.0951,4.0964,4.0973,4.0978,4.1015,4.0994,4.0994,4.1003,4.1001,4.101,4.101,4.1008,4.1034,4.1038,4.1055,4.1024,4.11,4.1102,4.1105,4.1128,4.1133,4.1137,0,0,0,0,0,4.0943,4.0969,4.0964,4.0969,4.0994,4.1016,4.1019,4.1016,4.1004,4.1017,4.1019,4.101,4.1051,4.1036,4.1041,4.1059,4.1099,4.1102,4.1104,4.1126,4.1132,4.1137,0,0,0,0,0,0,4.096,4.097,4.0965,4.0995,4.1005,4.1013,4.1028,4.1022,4.1035,4.1032,4.1028,4.103,4.1057,4.106,4.1044,4.1091,4.1073,4.1077,4.1088,4.1094,4.1098,4.1097,4.1025,0,0,0,0,0,4.0967,4.0985,4.0992,4.1018,4.1023,4.1025,4.1034,4.1032,4.1041,4.1045,4.105,4.1059,4.1074,4.1084,4.1097,4.1129,4.1131,4.1143,4.1148,4.1151,4.1155,4.1173,4.1179,4.1115,4.1115,4.1115,0,0,4.0982,4.099,4.1001,4.1022,4.1029,4.1047,4.1029,4.1048,4.1061,4.1048,4.1072,4.1076,4.1086,4.1114,4.1127,4.1118,4.1173,4.1155,4.1158,4.1159,4.1176,4.1182,4.1188,4.1116,4.1116,4.1116,0,0,4.102,4.1027,4.105,4.1058,4.107,4.1072,4.1077,4.1087,4.1089,4.1114,4.1105,4.112,4.1145,4.1154,4.1161,4.1203,4.1195,4.1207,4.1231,4.1248,4.1254,4.1258,4.1274,4.128,4.1211,4.1211,4.1211,0,4.1036,4.1064,4.1062,4.1083,4.1093,4.1083,4.1106,4.1114,4.1129,4.1136,4.1126,4.1159,4.1165,4.1196,4.1207,4.1212,4.1219,4.1206,4.1253,4.1258,4.1262,4.1277,4.1283,4.1212,4.1212,4.1212,4.1212,0,4.1085,4.1104,4.1122,4.1139,4.115,4.1172,4.1173,4.1185,4.1181,4.1184,4.121,4.1216,4.1232,4.1239,4.1235,4.127,4.1265,4.1254,4.1236,4.127,4.1284,4.129,4.1214,4.1214,4.1213,4.1213,0,0,4.1133,4.115,4.1157,4.1165,4.1179,4.1193,4.1215,4.1232,4.1242,4.1253,4.1272,4.1294,4.1285,4.1294,4.1291,4.1306,4.1341,4.1294,4.1294,4.1303,4.1381,4.139,4.1397,4.1335,4.1336,4.1337,4.1381,0,4.1172,4.1211,4.1211,4.1247,4.1266,4.1257,4.1276,4.1286,4.1289,4.1304,4.1307,4.1324,4.131,4.1315,4.133,4.1333,4.1356,4.133,4.1352,4.1353,4.1352,4.1404,4.1413,4.1454,4.1386,4.1387,4.1388,0,4.1222,4.1238,4.1276,4.1289,4.1296,4.1314,4.133,4.1345,4.1356,4.1357,4.1368,4.1363,4.1384,4.1365,4.1396,4.1378,4.1387,4.139,4.1392,4.1394,4.1373,4.1409,4.1466,4.1473,4.1396,4.1395,4.1395,0,4.1256,4.1285,4.1313,4.132,4.1334,4.1347,4.1354,4.1364,4.1375,4.1388,4.1396,4.1411,4.142,4.1432,4.1431,4.1417,4.1463,4.1443,4.1465,4.1465,4.1475,4.1475,4.1536,4.1479,4.1479,4.1479,4.1479,0,4.13,4.1324,4.1328,4.1345,4.1372,4.1371,4.1398,4.1403,4.1413,4.143,4.1423,4.1439,4.1437,4.1453,4.1453,4.1479,4.1482,4.1484,4.1484,4.1485,4.1485,4.1492,4.149,4.148,4.148,4.148,4.1479,0,4.1341,4.1345,4.1375,4.1387,4.1391,4.141,4.142,4.1436,4.1439,4.1461,4.1467,4.1471,4.149,4.149,4.1511,4.1511,4.1544,4.1539,4.154,4.154,4.1562,4.156,4.163,4.164,4.1576,4.1576,4.1577,0,4.137,4.1389,4.1404,4.1416,4.1424,4.1443,4.1455,4.1454,4.1466,4.1482,4.1496,4.1515,4.153,4.1561,4.1565,4.1582,4.1579,4.1602,4.1581,4.1583,4.1581,4.1581,4.1583,4.1607,4.1607,4.1608,4.1608,0,4.1421,4.1422,4.144,4.1459,4.1474,4.1488,4.1501,4.1511,4.1512,4.1526,4.1547,4.1559,4.1582,4.1601,4.1617,4.1623,4.1616,4.1615,4.1621,4.1624,4.1624,4.1626,4.1553,4.1614,4.1613,4.1613,4.1612,4.1612,4.1458,4.1475,4.1489,4.1509,4.152,4.1533,4.1549,4.1555,4.1572,4.1592,4.1591,4.1614,4.1625,4.1647,4.1654,4.1672,4.1664,4.1672,4.1674,4.1677,4.168,4.1621,4.1674,4.1674,4.1674,4.1674,4.1674,0,4.151,4.1519,4.1538,4.1558,4.1574,4.1567,4.1582,4.1596,4.1617,4.1629,4.1644,4.1668,4.1687,4.1693,4.1712,4.1725,4.1722,4.1729,4.1729,4.1731,4.1685,4.1679,4.1731,4.1731,4.1731,4.1731,4.1731,4.1731,4.1539,4.1568,4.1572,4.1606,4.1614,4.1638,4.1648,4.166,4.1669,4.1697,4.1713,4.1718,4.1728,4.1747,4.1764,4.1765,4.1772,4.1782,4.1782,4.1739,4.1734,4.1728,4.1722,4.1783,4.1783,4.1826,4.1826,4.1827]}]]